Raleigh, IL

9:15 AM CST on February 14, 2016 (GMT -0600)
Harrisburg-Raleigh

Weather History for KHSB - December, 2013

Change the Weather History Date:

Sunday, December 15, 2013

  Actual Average (KMWA) Record (KMWA)
Temperature  
Mean Temperature 30 °F -  
Max Temperature 32 °F 44 °F 69 °F (1971)
Min Temperature 27 °F 26 °F 4 °F (1985)
Degree Days  
Heating Degree Days 36    
Moisture  
Dew Point 26 °F    
Average Humidity 86    
Maximum Humidity 96    
Minimum Humidity 79    
Precipitation  
Precipitation 0.00 in - - ()
Sea Level Pressure  
Sea Level Pressure 30.17 in    
Wind  
Wind Speed 10 mph (WSW)    
Max Wind Speed 15 mph    
Max Gust Speed 22 mph    
Visibility 8 miles    
Events      
Averages and records for this station are not official NWS values.
T = Trace of Precipitation, MM = Missing Value Source: NWS Daily Summary

Daily Weather History Graph

Daily Weather History Graph

Search for Another Location

Airport or City:

Trip Planner

Search our weather history database for the weather conditions in past years. The results will help you decide how hot, cold, wet, or windy it might be!

Date:

Astronomy

Dec. 15, 2013 Rise Set
Actual Time 7:02 AM CST 4:36 PM CST
Civil Twilight 6:33 AM CST 5:05 PM CST
Nautical Twilight 6:00 AM CST 5:38 PM CST
Astronomical Twilight 5:28 AM CST 6:10 PM CST
Moon 3:39 PM CST (12/15) 5:20 AM CST (12/15)
Length of Visible Light 10h 32m
Length of Day
9h 33m
Waxing Gibbous, 98% of the Moon is Illuminated
Dec 15
Waxing Gibbous
Dec 17
Full
Dec 25
Last Quarter
Jan 1
New
Jan 7
First Quarter

Hourly Weather History & Observations

Time (CST) Temp. Windchill Dew Point Humidity Pressure Visibility Wind Dir Wind Speed Gust Speed Precip Events Conditions
12:15 AM 30.9 °F 22.2 °F 27.1 °F 86% 30.11 in 10.0 mi NW 10.4 mph 17.3 mph N/A   Overcast
12:35 AM 30.2 °F 19.3 °F 27.1 °F 88% 30.12 in 7.0 mi WNW 15.0 mph 20.7 mph N/A   Overcast
12:55 AM 29.8 °F 19.3 °F 26.6 °F 88% 30.12 in 7.0 mi NW 13.8 mph 21.9 mph N/A   Overcast
1:15 AM 29.3 °F 19.1 °F 25.9 °F 87% 30.13 in 10.0 mi NW 12.7 mph - N/A   Overcast
1:35 AM 29.1 °F 18.9 °F 25.2 °F 85% 30.14 in 10.0 mi NW 12.7 mph 20.7 mph N/A   Overcast
1:55 AM 29.3 °F 21.5 °F 25.2 °F 85% 30.14 in 10.0 mi NW 8.1 mph - N/A   Overcast
2:15 AM 29.3 °F 20.2 °F 25.2 °F 85% 30.14 in 10.0 mi NW 10.4 mph - N/A   Overcast
2:35 AM 29.3 °F 20.8 °F 25.7 °F 86% 30.15 in 7.0 mi NW 9.2 mph - N/A   Overcast
2:55 AM 29.3 °F 20.2 °F 25.7 °F 86% 30.15 in 7.0 mi WNW 10.4 mph 18.4 mph N/A   Overcast
3:15 AM 29.3 °F 19.1 °F 25.3 °F 85% 30.15 in 7.0 mi NW 12.7 mph 21.9 mph N/A   Overcast
3:35 AM 29.3 °F 19.6 °F 25.3 °F 85% 30.15 in 7.0 mi WNW 11.5 mph - N/A   Overcast
3:55 AM 29.1 °F 19.4 °F 25.5 °F 86% 30.15 in 7.0 mi WNW 11.5 mph - N/A   Overcast
4:15 AM 29.1 °F 21.3 °F 25.7 °F 87% 30.15 in 7.0 mi NW 8.1 mph - N/A   Overcast
4:35 AM 28.9 °F 19.2 °F 25.2 °F 86% 30.16 in 7.0 mi NW 11.5 mph 17.3 mph N/A   Overcast
4:55 AM 28.8 °F 19.0 °F 24.8 °F 85% 30.16 in 10.0 mi NW 11.5 mph - N/A   Overcast
5:15 AM 28.8 °F 20.2 °F 24.4 °F 84% 30.16 in 10.0 mi WNW 9.2 mph - N/A   Overcast
5:35 AM 28.6 °F 19.3 °F 24.6 °F 85% 30.17 in 10.0 mi WNW 10.4 mph - N/A   Overcast
5:55 AM 28.6 °F 18.7 °F 24.8 °F 86% 30.18 in 10.0 mi WNW 11.5 mph - N/A   Overcast
6:15 AM 28.4 °F 19.7 °F 24.6 °F 86% 30.19 in 10.0 mi NW 9.2 mph - N/A   Overcast
6:35 AM 28.4 °F 18.5 °F 24.4 °F 85% 30.19 in 10.0 mi West 11.5 mph - N/A   Overcast
6:55 AM 28.2 °F 18.3 °F 24.6 °F 86% 30.20 in 7.0 mi West 11.5 mph - N/A   Overcast
7:15 AM 28.0 °F 20.0 °F 24.6 °F 87% 30.20 in 10.0 mi West 8.1 mph - N/A   Overcast
7:35 AM 27.5 °F 17.4 °F 23.5 °F 85% 30.22 in 10.0 mi WNW 11.5 mph - N/A   Overcast
7:55 AM 27.5 °F 20.2 °F 23.7 °F 86% 30.22 in 10.0 mi WNW 6.9 mph - N/A   Overcast
8:15 AM 27.9 °F 19.8 °F 23.9 °F 85% 30.22 in 7.0 mi West 8.1 mph - N/A   Overcast
8:35 AM 28.2 °F 18.3 °F 24.1 °F 84% 30.22 in 7.0 mi West 11.5 mph - N/A   Overcast
8:55 AM 28.2 °F 20.2 °F 24.4 °F 86% 30.24 in 7.0 mi West 8.1 mph - N/A   Overcast
9:15 AM 28.4 °F 21.2 °F 24.6 °F 86% 30.24 in 7.0 mi West 6.9 mph - N/A   Overcast
9:35 AM 28.0 °F 20.8 °F 23.9 °F 84% 30.25 in 7.0 mi WNW 6.9 mph - N/A   Overcast
9:55 AM 28.4 °F 20.4 °F 24.4 °F 85% 30.24 in 7.0 mi West 8.1 mph - N/A   Overcast
10:15 AM 28.4 °F 20.4 °F 24.8 °F 86% 30.24 in 7.0 mi West 8.1 mph - N/A   Overcast
10:35 AM 28.9 °F 19.2 °F 24.4 °F 83% 30.24 in 10.0 mi West 11.5 mph 17.3 mph N/A   Overcast
10:55 AM 28.9 °F 19.2 °F 24.1 °F 82% 30.22 in 10.0 mi West 11.5 mph 17.3 mph N/A   Overcast
11:15 AM 29.3 °F 20.8 °F 24.1 °F 81% 30.21 in 10.0 mi West 9.2 mph - N/A   Overcast
11:35 AM 29.3 °F 22.3 °F 24.1 °F 81% 30.20 in 10.0 mi WSW 6.9 mph - N/A   Overcast
11:55 AM 29.7 °F 22.0 °F 24.1 °F 80% 30.20 in 10.0 mi West 8.1 mph - N/A   Overcast
12:15 PM 30.0 °F 21.7 °F 24.6 °F 80% 30.18 in 10.0 mi WSW 9.2 mph - N/A   Overcast
12:35 PM 30.0 °F 21.1 °F 24.8 °F 81% 30.19 in 10.0 mi WSW 10.4 mph - N/A   Overcast
12:55 PM 30.6 °F 23.1 °F 25.0 °F 80% 30.18 in 10.0 mi WSW 8.1 mph - N/A   Overcast
1:15 PM 30.9 °F 22.2 °F 25.3 °F 80% 30.18 in 10.0 mi WSW 10.4 mph - N/A   Overcast
1:35 PM 31.1 °F 23.7 °F 25.7 °F 80% 30.19 in 10.0 mi WSW 8.1 mph - N/A   Overcast
1:55 PM 31.1 °F 23.1 °F 26.1 °F 82% 30.20 in 10.0 mi West 9.2 mph - N/A   Overcast
2:15 PM 31.1 °F 26.4 °F 25.2 °F 79% 30.18 in 10.0 mi SW 4.6 mph - N/A   Overcast
2:35 PM 31.6 °F 23.1 °F 25.9 °F 79% 30.17 in 10.0 mi SW 10.4 mph - N/A   Overcast
2:55 PM 31.1 °F 23.1 °F 26.1 °F 82% 30.17 in 10.0 mi SW 9.2 mph - N/A   Overcast
3:15 PM 31.1 °F 23.7 °F 25.5 °F 80% 30.17 in 10.0 mi SW 8.1 mph - N/A   Overcast
3:35 PM 31.1 °F 24.5 °F 25.7 °F 80% 30.18 in 10.0 mi SW 6.9 mph - N/A   Mostly Cloudy
3:55 PM 30.7 °F 22.6 °F 25.3 °F 80% 30.17 in 10.0 mi SSW 9.2 mph - N/A   Scattered Clouds
4:15 PM 30.7 °F 22.0 °F 25.7 °F 82% 30.15 in 10.0 mi SSW 10.4 mph - N/A   Clear
4:35 PM 30.2 °F 22.6 °F 26.4 °F 86% 30.15 in 10.0 mi SSW 8.1 mph - N/A   Scattered Clouds
4:55 PM 29.7 °F 22.0 °F 26.1 °F 86% 30.16 in 10.0 mi SSW 8.1 mph - N/A   Scattered Clouds
5:15 PM 29.3 °F 22.3 °F 26.2 °F 88% 30.15 in 10.0 mi SSW 6.9 mph - N/A   Mostly Cloudy
5:35 PM 30.2 °F 21.3 °F 27.1 °F 88% 30.15 in 10.0 mi SSW 10.4 mph - N/A   Overcast
5:55 PM 30.2 °F 21.9 °F 27.5 °F 90% 30.16 in 7.0 mi SSW 9.2 mph - N/A   Overcast
6:15 PM 30.7 °F 24.9 °F 28.0 °F 90% 30.17 in 7.0 mi SSW 5.8 mph - N/A   Overcast
6:35 PM 30.9 °F 22.2 °F 28.4 °F 90% 30.17 in 7.0 mi SSW 10.4 mph - N/A   Overcast
6:55 PM 30.9 °F 21.2 °F 28.4 °F 90% 30.16 in 7.0 mi SSW 12.7 mph - N/A   Overcast
7:15 PM 31.1 °F 23.7 °F 28.9 °F 92% 30.17 in 7.0 mi SSW 8.1 mph - N/A   Overcast
7:35 PM 31.1 °F 23.1 °F 29.1 °F 92% 30.17 in 7.0 mi SSW 9.2 mph - N/A   Overcast
7:55 PM 31.1 °F 23.7 °F 29.3 °F 93% 30.17 in 7.0 mi SSW 8.1 mph - N/A   Overcast
8:15 PM 31.5 °F 25.8 °F 29.3 °F 92% 30.17 in 7.0 mi SSW 5.8 mph - N/A   Overcast
8:35 PM 31.6 °F 24.4 °F 29.3 °F 91% 30.16 in 7.0 mi SSW 8.1 mph - N/A   Overcast
8:55 PM 31.8 °F 25.4 °F 29.7 °F 92% 30.16 in 7.0 mi SSW 6.9 mph - N/A   Overcast
9:15 PM 32.0 °F 24.2 °F 30.2 °F 93% 30.16 in 7.0 mi SSW 9.2 mph - N/A   Overcast
9:35 PM 32.0 °F 24.8 °F 30.4 °F 94% 30.16 in 7.0 mi SSW 8.1 mph - N/A   Overcast
9:55 PM 32.4 °F 24.6 °F 30.9 °F 94% 30.16 in 7.0 mi SSW 9.2 mph - N/A   Overcast
10:15 PM 32.4 °F 26.0 °F 30.9 °F 94% 30.16 in 7.0 mi SSW 6.9 mph - N/A   Overcast
10:35 PM 32.0 °F 23.6 °F 30.6 °F 94% 30.15 in 7.0 mi SSW 10.4 mph - N/A   Mostly Cloudy
10:55 PM 32.0 °F 24.8 °F 30.6 °F 94% 30.14 in 7.0 mi SSW 8.1 mph - N/A   Scattered Clouds
11:15 PM 32.0 °F 24.2 °F 30.9 °F 96% 30.13 in 7.0 mi South 9.2 mph - N/A   Mostly Cloudy
11:35 PM 32.2 °F 25.0 °F 31.1 °F 96% 30.13 in 7.0 mi SSW 8.1 mph - N/A   Overcast
11:55 PM 32.4 °F 26.0 °F 31.1 °F 95% 30.12 in 7.0 mi SSW 6.9 mph - N/A   Overcast